Flag for Finland Weather past 2 weeks in Helsinki, Finland

Now
30 °F

Passing clouds.


Feels Like: 21 °F
Forecast: 32 / 37 °F
Wind: 12 mph from Southeast

Location: Helsinki Malmi Airport

Current Time: Oct 23, 2014 at 10:15:09 PM

Latest Report: Oct 23, 2014 at 9:50 PM


Visibility: N/A

Pressure: 30.57 "Hg

Humidity: 59%

Dew point: 18 °F

Location of HelsinkiLocation

Historic Weather in Helsinki — Graph

°F

Helsinki temperature yesterday

Maximum temperature yesterday: 30 °F (at 12:20 AM)
Minimum temperature yesterday: 25 °F (at 8:20 PM)
Average temperature yesterday: 28 °F

Past Weeks' High & Low Weather Summary

 TemperatureHumidityPressure
High55 °F (Oct 10, 5:20 AM)100% (Oct 9, 4:20 AM)30.57 "Hg (Oct 9, 4:20 AM)
Low19 °F (Oct 18, 7:50 AM)48% (Oct 17, 2:50 PM)29.30 "Hg (Oct 20, 7:50 AM)
Average41 °F85%29.94 "Hg
* Reported Oct 8 8:20 PM — Oct 23 8:50 PM, Helsinki, Weather by CustomWeather, © 2014

Note: Actual official high and low records may vary slightly from our data, if they occured in-between our weather recording intervals... More about our weather records

Advertising

Helsinki weather history for previous 24 hours

 ConditionsComfort  
Time TempWeatherWind HumidityBarometerVisibility
8:50 PM
Oct 23
30 °FPassing clouds.10 mph59%30.54 "HgN/A
8:20 PM30 °FPassing clouds.9 mph59%30.54 "HgN/A
7:50 PM30 °FPassing clouds.8 mph64%30.54 "HgN/A
7:20 PM30 °FPassing clouds.9 mph64%30.54 "HgN/A
6:50 PM30 °FPassing clouds.10 mph69%30.54 "HgN/A
6:20 PM32 °FPartly sunny.10 mph64%30.54 "HgN/A
5:50 PM30 °FPartly sunny.12 mph69%30.54 "HgN/A
5:20 PM30 °FPartly sunny.10 mph64%30.54 "HgN/A
4:50 PM32 °FPartly sunny.13 mph60%30.54 "HgN/A
4:20 PM32 °FPartly sunny.10 mph64%30.54 "HgN/A
3:50 PM32 °FPartly sunny.9 mph64%30.57 "HgN/A
3:20 PM32 °FPartly sunny.10 mph64%30.57 "HgN/A
2:50 PM32 °FPartly sunny.10 mph69%30.57 "HgN/A
2:20 PM32 °FPartly sunny.9 mph69%30.54 "HgN/A
1:50 PM28 °FLight snow. Partly sunny.3 mph74%30.57 "HgN/A
1:20 PM28 °FLight snow. Partly sunny.2 mph74%30.54 "HgN/A
12:50 PM28 °FLight snow. Partly sunny.3 mph69%30.54 "HgN/A
12:20 PM27 °FLight snow. Partly sunny.5 mph74%30.54 "HgN/A
11:50 AM27 °FLight snow. Partly sunny.5 mph74%30.54 "HgN/A
11:20 AM27 °FSnow flurries. Broken clouds.6 mph74%30.54 "HgN/A
10:50 AM27 °FSnow flurries. Partly sunny.6 mph74%30.54 "HgN/A
10:20 AM27 °FLight snow. Partly sunny.6 mph74%30.51 "HgN/A
9:50 AM27 °FLight snow. Partly sunny.7 mph69%30.51 "HgN/A
9:20 AM27 °FLight snow. Partly sunny.5 mph69%30.51 "HgN/A
8:50 AM27 °FLight snow. Passing clouds.6 mph69%30.51 "HgN/A
8:20 AM27 °FSnow flurries. Overcast.6 mph69%30.48 "HgN/A
7:50 AM27 °FLight snow. Overcast.7 mph69%30.48 "HgN/A
7:20 AM25 °FLight snow. Overcast.6 mph74%30.48 "HgN/A
6:50 AM25 °FLight snow. Overcast.6 mph74%30.48 "HgN/A
6:20 AM25 °FOvercast.7 mph74%30.45 "HgN/A
5:50 AM25 °FOvercast.6 mph69%30.45 "HgN/A
5:20 AM25 °FOvercast.8 mph69%30.45 "HgN/A
4:50 AM25 °FOvercast.6 mph69%30.45 "HgN/A
4:20 AM25 °FOvercast.6 mph69%30.45 "HgN/A
3:50 AM25 °FOvercast.6 mph69%30.45 "HgN/A
3:20 AM25 °FOvercast.7 mph69%30.45 "HgN/A
2:50 AM25 °FOvercast.7 mph69%30.45 "HgN/A
2:20 AM25 °FOvercast.7 mph63%30.42 "HgN/A
1:50 AM25 °FOvercast.7 mph63%30.42 "HgN/A
1:20 AM25 °FOvercast.6 mph63%30.42 "HgN/A
12:50 AM25 °FOvercast.7 mph59%30.39 "HgN/A
12:20 AM25 °FPassing clouds.8 mph59%30.39 "HgN/A
11:50 PM
Oct 22
25 °FPassing clouds.7 mph59%30.39 "HgN/A
11:20 PM25 °FPassing clouds.8 mph59%30.36 "HgN/A
10:50 PM25 °FPassing clouds.9 mph54%30.36 "HgN/A
10:20 PM25 °FPassing clouds.8 mph54%30.36 "HgN/A
Weather by CustomWeather, © 2014

See weather overviewHow to use our weather pages